EN

Hourly Weather Abella de la Conca

Today, 19 June, Saturday

Time Temperature Precipitation Wind Pressure Humidity
00:00 +14°C° 0 mm 1 mps 656 mmHg 84%
01:00 +14°C° 0 mm 1 mps 656 mmHg 83%
02:00 +14°C° 0 mm 1 mps 656 mmHg 83%
03:00 +14°C° 0 mm 1 mps 655 mmHg 83%
04:00 +14°C° 0 mm 1 mps 656 mmHg 79%
05:00 +15°C° 0 mm 1 mps 656 mmHg 76%
06:00 +16°C° 0 mm 1 mps 657 mmHg 73%
07:00 +19°C° 0.1 mm 1 mps 657 mmHg 64%
08:00 +21°C° 0.1 mm 1 mps 657 mmHg 54%
09:00 +23°C° 0.1 mm 1 mps 657 mmHg 45%
10:00 +23°C° 0.1 mm 2 mps 657 mmHg 44%
11:00 +24°C° 0.1 mm 2 mps 657 mmHg 44%
12:00 +24°C° 0.1 mm 2 mps 657 mmHg 44%
13:00 +24°C° 0.1 mm 3 mps 657 mmHg 45%
14:00 +23°C° 0.1 mm 4 mps 656 mmHg 46%
15:00 +23°C° 0.1 mm 4 mps 656 mmHg 48%
16:00 +22°C° 0.1 mm 4 mps 656 mmHg 51%
17:00 +21°C° 0.1 mm 3 mps 656 mmHg 54%
18:00 +20°C° 0.1 mm 2 mps 656 mmHg 57%
19:00 +19°C° 0 mm 2 mps 655 mmHg 61%
20:00 +17°C° 0 mm 2 mps 655 mmHg 66%
21:00 +16°C° 0 mm 2 mps 655 mmHg 70%
22:00 +15°C° 0.2 mm 2 mps 655 mmHg 75%
23:00 +15°C° 0.2 mm 1 mps 655 mmHg 81%

Tomorrow, 20 June, Sunday

Time Temperature Precipitation Wind Pressure Humidity
00:00 +14°C° 0.2 mm 1 mps 655 mmHg 86%
01:00 +14°C° 0.3 mm 1 mps 654 mmHg 87%
02:00 +13°C° 0.3 mm 1 mps 653 mmHg 87%
03:00 +13°C° 0.3 mm 1 mps 653 mmHg 88%
04:00 +13°C° 1.1 mm 1 mps 653 mmHg 88%
05:00 +13°C° 1.1 mm 1 mps 653 mmHg 88%
06:00 +14°C° 1.1 mm 1 mps 653 mmHg 89%
07:00 +15°C° 0.4 mm 1 mps 653 mmHg 82%
08:00 +18°C° 0.4 mm 1 mps 653 mmHg 75%
09:00 +18°C° 0.4 mm 2 mps 653 mmHg 68%
10:00 +19°C° 0 mm 3 mps 653 mmHg 59%
11:00 +20°C° 0 mm 3 mps 653 mmHg 51%
12:00 +21°C° 0 mm 4 mps 653 mmHg 42%
13:00 +21°C° 0 mm 4 mps 653 mmHg 42%
14:00 +21°C° 0 mm 4 mps 653 mmHg 41%
15:00 +20°C° 0 mm 4 mps 653 mmHg 40%
16:00 +20°C° 0 mm 4 mps 652 mmHg 42%
17:00 +19°C° 0 mm 3 mps 652 mmHg 44%
18:00 +19°C° 0 mm 3 mps 652 mmHg 46%
19:00 +17°C° 0 mm 2 mps 652 mmHg 53%
20:00 +15°C° 0 mm 2 mps 652 mmHg 59%
21:00 +14°C° 0 mm 1 mps 652 mmHg 66%
22:00 +13°C° 0 mm 1 mps 652 mmHg 68%
23:00 +13°C° 0 mm 1 mps 652 mmHg 69%

Day after tomorrow, 21 June, Monday

Time Temperature Precipitation Wind Pressure Humidity
00:00 +13°C° 0 mm 2 mps 652 mmHg 71%
01:00 +12°C° 0 mm 1 mps 651 mmHg 75%
02:00 +11°C° 0 mm 1 mps 651 mmHg 78%
03:00 +10°C° 0 mm 1 mps 651 mmHg 82%
04:00 +11°C° 0 mm 1 mps 651 mmHg 79%
05:00 +12°C° 0 mm 1 mps 651 mmHg 77%
06:00 +11°C° 0 mm 0 mps 652 mmHg 74%
07:00 +14°C° 0 mm 1 mps 652 mmHg 67%
08:00 +16°C° 0 mm 2 mps 653 mmHg 60%
09:00 +18°C° 0 mm 2 mps 653 mmHg 52%
10:00 +19°C° 0 mm 3 mps 653 mmHg 46%
11:00 +20°C° 0 mm 3 mps 653 mmHg 40%
12:00 +21°C° 0 mm 4 mps 654 mmHg 34%
13:00 +21°C° 0 mm 4 mps 653 mmHg 33%
14:00 +21°C° 0 mm 4 mps 653 mmHg 33%
15:00 +21°C° 0 mm 4 mps 653 mmHg 32%
16:00 +20°C° 0 mm 3 mps 653 mmHg 34%
17:00 +20°C° 0 mm 2 mps 653 mmHg 37%
18:00 +19°C° 0 mm 2 mps 652 mmHg 39%
19:00 +17°C° 0 mm 2 mps 652 mmHg 43%
20:00 +15°C° 0 mm 1 mps 652 mmHg 47%
21:00 +13°C° 0 mm 1 mps 652 mmHg 51%
22:00 +13°C° 0 mm 1 mps 652 mmHg 52%
23:00 +13°C° 0 mm 1 mps 652 mmHg 53%

22 June, Tuesday

Time Temperature Precipitation Wind Pressure Humidity
00:00 +12°C° 0 mm 1 mps 652 mmHg 54%
01:00 +12°C° 0 mm 1 mps 652 mmHg 56%
02:00 +11°C° 0 mm 1 mps 651 mmHg 57%
03:00 +11°C° 0 mm 1 mps 651 mmHg 58%
04:00 +12°C° 0 mm 1 mps 652 mmHg 57%
05:00 +12°C° 0 mm 1 mps 652 mmHg 56%
06:00 +12°C° 0 mm 0 mps 652 mmHg 55%
07:00 +15°C° 0 mm 1 mps 653 mmHg 50%
08:00 +17°C° 0 mm 2 mps 654 mmHg 45%
09:00 +19°C° 0 mm 2 mps 654 mmHg 40%
10:00 +19°C° 0 mm 3 mps 654 mmHg 38%
11:00 +20°C° 0 mm 3 mps 655 mmHg 36%
12:00 +21°C° 0 mm 4 mps 655 mmHg 34%
13:00 +21°C° 0 mm 3 mps 655 mmHg 34%
14:00 +21°C° 0 mm 3 mps 654 mmHg 35%
15:00 +21°C° 0 mm 3 mps 654 mmHg 35%
16:00 +20°C° 0.1 mm 3 mps 654 mmHg 42%
17:00 +19°C° 0.1 mm 4 mps 654 mmHg 50%
18:00 +17°C° 0.1 mm 4 mps 653 mmHg 57%
19:00 +16°C° 3.7 mm 3 mps 654 mmHg 69%
20:00 +14°C° 3.7 mm 2 mps 654 mmHg 81%
21:00 +12°C° 3.7 mm 1 mps 654 mmHg 92%
22:00 +11°C° 0.6 mm 1 mps 654 mmHg 91%
23:00 +11°C° 0.6 mm 1 mps 654 mmHg 90%

23 June, Wednesday

Time Temperature Precipitation Wind Pressure Humidity
00:00 +10°C° 0.6 mm 1 mps 654 mmHg 89%
01:00 +10°C° 0 mm 1 mps 653 mmHg 90%
02:00 +9°C° 0 mm 1 mps 653 mmHg 90%
03:00 +9°C° 0 mm 1 mps 653 mmHg 90%
04:00 +10°C° 0 mm 1 mps 653 mmHg 87%
05:00 +10°C° 0 mm 1 mps 654 mmHg 85%
06:00 +11°C° 0 mm 1 mps 654 mmHg 82%
07:00 +13°C° 0 mm 1 mps 655 mmHg 71%
08:00 +15°C° 0 mm 2 mps 655 mmHg 59%
09:00 +17°C° 0 mm 2 mps 656 mmHg 48%
10:00 +18°C° 0 mm 2 mps 656 mmHg 44%
11:00 +19°C° 0 mm 3 mps 657 mmHg 40%
12:00 +20°C° 0 mm 3 mps 657 mmHg 37%
13:00 +20°C° 0 mm 3 mps 657 mmHg 36%
14:00 +21°C° 0 mm 3 mps 657 mmHg 35%
15:00 +21°C° 0 mm 3 mps 657 mmHg 35%
16:00 +20°C° 0 mm 3 mps 657 mmHg 38%
17:00 +20°C° 0 mm 2 mps 657 mmHg 42%
18:00 +19°C° 0 mm 2 mps 657 mmHg 45%
19:00 +18°C° 0 mm 1 mps 657 mmHg 50%
20:00 +15°C° 0 mm 1 mps 657 mmHg 55%
21:00 +13°C° 0 mm 0 mps 657 mmHg 60%
22:00 +13°C° 0 mm 1 mps 657 mmHg 62%
23:00 +13°C° 0 mm 1 mps 658 mmHg 64%

24 June, Thursday

Time Temperature Precipitation Wind Pressure Humidity
00:00 +12°C° 0 mm 1 mps 658 mmHg 66%
01:00 +12°C° 0 mm 1 mps 658 mmHg 66%
02:00 +12°C° 0 mm 1 mps 657 mmHg 66%
03:00 +12°C° 0 mm 1 mps 657 mmHg 67%
04:00 +13°C° 0 mm 1 mps 658 mmHg 65%
05:00 +13°C° 0 mm 1 mps 658 mmHg 64%
06:00 +14°C° 0 mm 1 mps 658 mmHg 62%
07:00 +16°C° 0 mm 1 mps 659 mmHg 56%
08:00 +19°C° 0 mm 1 mps 659 mmHg 50%
09:00 +21°C° 0 mm 1 mps 660 mmHg 44%
10:00 +21°C° 0 mm 2 mps 660 mmHg 41%
11:00 +23°C° 0 mm 2 mps 660 mmHg 39%
12:00 +24°C° 0 mm 2 mps 660 mmHg 36%
13:00 +24°C° 0 mm 3 mps 660 mmHg 37%
14:00 +24°C° 0 mm 3 mps 660 mmHg 37%
15:00 +24°C° 0 mm 3 mps 659 mmHg 38%
16:00 +21°C° 0.3 mm 3 mps 659 mmHg 46%
17:00 +20°C° 0.3 mm 3 mps 659 mmHg 53%
18:00 +18°C° 0.3 mm 3 mps 659 mmHg 61%
19:00 +16°C° 0.7 mm 3 mps 659 mmHg 69%
20:00 +15°C° 0.7 mm 2 mps 659 mmHg 77%
21:00 +13°C° 0.7 mm 1 mps 659 mmHg 85%
22:00 +12°C° 0 mm 1 mps 658 mmHg 85%
23:00 +12°C° 0 mm 1 mps 658 mmHg 85%
Show more